{"data":{"norad_id":59322,"epoch":"2026-09-19T23:03:39.696768Z","epoch_age_seconds":57755,"freshness":"FRESH","line1":"1 59322U 24057C   26262.96087612  .04580271  64385-1  57046-2 0  9994","line2":"2 59322  42.9738  99.2125 0023106 279.6888  80.1385 16.12284920140357","mean_motion":16.1228492,"eccentricity":0.0023106,"inclination_deg":42.9738,"raan_deg":99.2125,"arg_perigee_deg":279.6888,"mean_anomaly_deg":80.1385,"bstar":0.0057046,"rev_number":14035,"period_min":89.314238577633,"perigee_km":225.28934520951,"apogee_km":255.87577203381,"semimajor_km":6618.7195586217,"source":"CELESTRAK","updated_at":"2026-09-20T09:00:41.382821Z"}}